0610300051,2001,01,01,00,99
0610300051,2001,01,01,01,99
0610300051,2001,01,01,02,99
0610300051,2001,01,01,03,99
0610300051,2001,01,01,04,99
0610300051,2001,01,01,05,99
0610300051,2001,01,01,06,99
0610300051,2001,01,01,07,99
0610300051,2001,01,01,08,99
0610300051,2001,01,01,09,99
0610300051,2001,01,01,10,0.61
0610300051,2001,01,01,11,1.02
0610300051,2001,01,01,12,1.53
0610300051,2001,01,01,13,1.48
0610300051,2001,01,01,14,1.43
0610300051,2001,01,01,15,0.13
0610300051,2001,01,01,16,99
0610300051,2001,01,01,17,99
0610300051,2001,01,01,18,99
0610300051,2001,01,01,19,99
0610300051,2001,01,01,20,99
0610300051,2001,01,01,21,99
0610300051,2001,01,01,22,99
0610300051,2001,01,01,23,99
0610300051,2001,01,02,00,99
0610300051,2001,01,02,01,-0.05
0610300051,2001,01,02,02,-0.01
0610300051,2001,01,02,03,99
0610300051,2001,01,02,04,0.36
0610300051,2001,01,02,05,99
0610300051,2001,01,02,06,99
0610300051,2001,01,02,07,99
0610300051,2001,01,02,08,99
0610300051,2001,01,02,09,0.33
0610300051,2001,01,02,10,0.42
0610300051,2001,01,02,11,0.35
0610300051,2001,01,02,12,1.34
0610300051,2001,01,02,13,1.28
0610300051,2001,01,02,14,0.62
0610300051,2001,01,02,15,-0.09
0610300051,2001,01,02,16,99
0610300051,2001,01,02,17,99
0610300051,2001,01,02,18,99
0610300051,2001,01,02,19,99
0610300051,2001,01,02,20,99
0610300051,2001,01,02,21,99
0610300051,2001,01,02,22,99
0610300051,2001,01,02,23,99
0610300051,2001,01,03,00,99
0610300051,2001,01,03,01,99
0610300051,2001,01,03,02,99
0610300051,2001,01,03,03,99
0610300051,2001,01,03,04,99
0610300051,2001,01,03,05,99
0610300051,2001,01,03,06,99
0610300051,2001,01,03,07,99
0610300051,2001,01,03,08,99
0610300051,2001,01,03,09,-0.07
0610300051,2001,01,03,10,0.11
0610300051,2001,01,03,11,0.74
0610300051,2001,01,03,12,1.18
0610300051,2001,01,03,13,0.53
0610300051,2001,01,03,14,99
0610300051,2001,01,03,15,99
0610300051,2001,01,03,16,99
0610300051,2001,01,03,17,99
0610300051,2001,01,03,18,99
0610300051,2001,01,03,19,99
0610300051,2001,01,03,20,99
0610300051,2001,01,03,21,99
0610300051,2001,01,03,22,99
0610300051,2001,01,03,23,99
0610300051,2001,01,04,00,99
0610300051,2001,01,04,01,99
0610300051,2001,01,04,02,99
0610300051,2001,01,04,03,99
0610300051,2001,01,04,04,99
0610300051,2001,01,04,05,99
0610300051,2001,01,04,06,99
0610300051,2001,01,04,07,99
0610300051,2001,01,04,08,99
0610300051,2001,01,04,09,99
0610300051,2001,01,04,10,0.49
0610300051,2001,01,04,11,0.34
0610300051,2001,01,04,12,0.74
0610300051,2001,01,04,13,1.23
0610300051,2001,01,04,14,0.87
0610300051,2001,01,04,15,99
0610300051,2001,01,04,16,99
0610300051,2001,01,04,17,99
0610300051,2001,01,04,18,99
0610300051,2001,01,04,19,99
0610300051,2001,01,04,20,99
0610300051,2001,01,04,21,99
0610300051,2001,01,04,22,99
0610300051,2001,01,04,23,99
0610300051,2001,01,05,00,99
0610300051,2001,01,05,01,99
0610300051,2001,01,05,02,99
0610300051,2001,01,05,03,99
0610300051,2001,01,05,04,99
0610300051,2001,01,05,05,99
0610300051,2001,01,05,06,99
0610300051,2001,01,05,07,99
0610300051,2001,01,05,08,99
0610300051,2001,01,05,09,99
0610300051,2001,01,05,10,0.49
0610300051,2001,01,05,11,0.15
0610300051,2001,01,05,12,0.37
0610300051,2001,01,05,13,0.09
0610300051,2001,01,05,14,99
0610300051,2001,01,05,15,99
0610300051,2001,01,05,16,99
0610300051,2001,01,05,17,99
0610300051,2001,01,05,18,99
0610300051,2001,01,05,19,99
0610300051,2001,01,05,20,99
0610300051,2001,01,05,21,99
0610300051,2001,01,05,22,99
0610300051,2001,01,05,23,99
0610300051,2001,01,06,00,99
0610300051,2001,01,06,01,99
0610300051,2001,01,06,02,99
0610300051,2001,01,06,03,99
0610300051,2001,01,06,04,99
0610300051,2001,01,06,05,99
0610300051,2001,01,06,06,99
0610300051,2001,01,06,07,99
0610300051,2001,01,06,08,99
0610300051,2001,01,06,09,99
0610300051,2001,01,06,10,0.26
0610300051,2001,01,06,11,0.77
0610300051,2001,01,06,12,0.7
0610300051,2001,01,06,13,0.81
0610300051,2001,01,06,14,0.36
0610300051,2001,01,06,15,99
0610300051,2001,01,06,16,99
0610300051,2001,01,06,17,99
0610300051,2001,01,06,18,99
0610300051,2001,01,06,19,99
0610300051,2001,01,06,20,99
0610300051,2001,01,06,21,99
0610300051,2001,01,06,22,99
0610300051,2001,01,06,23,99
0610300051,2001,01,07,00,99
0610300051,2001,01,07,01,99
0610300051,2001,01,07,02,99
0610300051,2001,01,07,03,99
0610300051,2001,01,07,04,99
0610300051,2001,01,07,05,99
0610300051,2001,01,07,06,99
0610300051,2001,01,07,07,99
0610300051,2001,01,07,08,99
0610300051,2001,01,07,09,-0.05
0610300051,2001,01,07,10,0.47
0610300051,2001,01,07,11,99
0610300051,2001,01,07,12,99
0610300051,2001,01,07,13,99
0610300051,2001,01,07,14,99
0610300051,2001,01,07,15,99
0610300051,2001,01,07,16,99
0610300051,2001,01,07,17,99
0610300051,2001,01,07,18,99
0610300051,2001,01,07,19,99
0610300051,2001,01,07,20,99
0610300051,2001,01,07,21,99
0610300051,2001,01,07,22,99
0610300051,2001,01,07,23,99
0610300051,2001,01,08,00,99
0610300051,2001,01,08,01,99
0610300051,2001,01,08,02,99
0610300051,2001,01,08,03,0.24
0610300051,2001,01,08,04,0.66
0610300051,2001,01,08,05,0.97
0610300051,2001,01,08,06,0.46
0610300051,2001,01,08,07,0.05
0610300051,2001,01,08,08,99
0610300051,2001,01,08,09,99
0610300051,2001,01,08,10,99
0610300051,2001,01,08,11,99
0610300051,2001,01,08,12,99
0610300051,2001,01,08,13,1.13
0610300051,2001,01,08,14,1.11
0610300051,2001,01,08,15,0.53
0610300051,2001,01,08,16,0.02
0610300051,2001,01,08,17,99
0610300051,2001,01,08,18,99
0610300051,2001,01,08,19,99
0610300051,2001,01,08,20,99
0610300051,2001,01,08,21,99
0610300051,2001,01,08,22,99
0610300051,2001,01,08,23,99
0610300051,2001,01,09,00,99
0610300051,2001,01,09,01,99
0610300051,2001,01,09,02,99
0610300051,2001,01,09,03,99
0610300051,2001,01,09,04,99
0610300051,2001,01,09,05,99
0610300051,2001,01,09,06,99
0610300051,2001,01,09,07,99
0610300051,2001,01,09,08,99
0610300051,2001,01,09,09,99
0610300051,2001,01,09,10,99
0610300051,2001,01,09,11,99
0610300051,2001,01,09,12,99
0610300051,2001,01,09,13,-0.09
0610300051,2001,01,09,14,0.42
0610300051,2001,01,09,15,0.28
0610300051,2001,01,09,16,0.4
0610300051,2001,01,09,17,0.16
0610300051,2001,01,09,18,0.24
0610300051,2001,01,09,19,99
0610300051,2001,01,09,20,99
0610300051,2001,01,09,21,0.09
0610300051,2001,01,09,22,0.01
0610300051,2001,01,09,23,0.12
0610300051,2001,01,10,00,0.2
0610300051,2001,01,10,01,0.12
0610300051,2001,01,10,02,99
0610300051,2001,01,10,03,99
0610300051,2001,01,10,04,99
0610300051,2001,01,10,05,99
0610300051,2001,01,10,06,99
0610300051,2001,01,10,07,99
0610300051,2001,01,10,08,99
0610300051,2001,01,10,09,99
0610300051,2001,01,10,10,99
0610300051,2001,01,10,11,99
0610300051,2001,01,10,12,99
0610300051,2001,01,10,13,0.27
0610300051,2001,01,10,14,0.54
0610300051,2001,01,10,15,0.42
0610300051,2001,01,10,16,1.33
0610300051,2001,01,10,17,1.26
0610300051,2001,01,10,18,0.96
0610300051,2001,01,10,19,0.94
0610300051,2001,01,10,20,1.08
0610300051,2001,01,10,21,1.99
0610300051,2001,01,10,22,1.16
0610300051,2001,01,10,23,0.91
0610300051,2001,01,11,00,0.91
0610300051,2001,01,11,01,0.92
0610300051,2001,01,11,02,0.7
0610300051,2001,01,11,03,1.44
0610300051,2001,01,11,04,1.21
0610300051,2001,01,11,05,1.06
0610300051,2001,01,11,06,0.67
0610300051,2001,01,11,07,0.61
0610300051,2001,01,11,08,0.71
0610300051,2001,01,11,09,0.66
0610300051,2001,01,11,10,1.22
0610300051,2001,01,11,11,1.26
0610300051,2001,01,11,12,1.13
0610300051,2001,01,11,13,0.84
0610300051,2001,01,11,14,1.08
0610300051,2001,01,11,15,0.8
0610300051,2001,01,11,16,0.01
0610300051,2001,01,11,17,-0.03
0610300051,2001,01,11,18,99
0610300051,2001,01,11,19,99
0610300051,2001,01,11,20,-0.03
0610300051,2001,01,11,21,99
0610300051,2001,01,11,22,-0.07
0610300051,2001,01,11,23,99
0610300051,2001,01,12,00,99
0610300051,2001,01,12,01,99
0610300051,2001,01,12,02,99
0610300051,2001,01,12,03,99
0610300051,2001,01,12,04,99
0610300051,2001,01,12,05,99
0610300051,2001,01,12,06,99
0610300051,2001,01,12,07,99
0610300051,2001,01,12,08,99
0610300051,2001,01,12,09,99
0610300051,2001,01,12,10,99
0610300051,2001,01,12,11,99
0610300051,2001,01,12,12,99
0610300051,2001,01,12,13,99
0610300051,2001,01,12,14,0.85
0610300051,2001,01,12,15,0.2
0610300051,2001,01,12,16,99
0610300051,2001,01,12,17,99
0610300051,2001,01,12,18,99
0610300051,2001,01,12,19,99
0610300051,2001,01,12,20,99
0610300051,2001,01,12,21,99
0610300051,2001,01,12,22,99
0610300051,2001,01,12,23,99
0610300051,2001,01,13,00,99
0610300051,2001,01,13,01,99
0610300051,2001,01,13,02,99
0610300051,2001,01,13,03,99
0610300051,2001,01,13,04,99
0610300051,2001,01,13,05,99
0610300051,2001,01,13,06,99
0610300051,2001,01,13,07,99
0610300051,2001,01,13,08,99
0610300051,2001,01,13,09,99
0610300051,2001,01,13,10,0.06
0610300051,2001,01,13,11,0.79
0610300051,2001,01,13,12,0.96
0610300051,2001,01,13,13,0.58
0610300051,2001,01,13,14,0.46
0610300051,2001,01,13,15,-0.02
0610300051,2001,01,13,16,99
0610300051,2001,01,13,17,99
0610300051,2001,01,13,18,99
0610300051,2001,01,13,19,99
0610300051,2001,01,13,20,99
0610300051,2001,01,13,21,99
0610300051,2001,01,13,22,99
0610300051,2001,01,13,23,99
0610300051,2001,01,14,00,99
0610300051,2001,01,14,01,99
0610300051,2001,01,14,02,99
0610300051,2001,01,14,03,99
0610300051,2001,01,14,04,99
0610300051,2001,01,14,05,99
0610300051,2001,01,14,06,99
0610300051,2001,01,14,07,99
0610300051,2001,01,14,08,99
0610300051,2001,01,14,09,0.37
0610300051,2001,01,14,10,1.63
0610300051,2001,01,14,11,1.87
0610300051,2001,01,14,12,2.14
0610300051,2001,01,14,13,2.37
0610300051,2001,01,14,14,2.26
0610300051,2001,01,14,15,1.82
0610300051,2001,01,14,16,1.51
0610300051,2001,01,14,17,1.38
0610300051,2001,01,14,18,0.95
0610300051,2001,01,14,19,0.69
0610300051,2001,01,14,20,0.12
0610300051,2001,01,14,21,0.06
0610300051,2001,01,14,22,0.89
0610300051,2001,01,14,23,1.12
0610300051,2001,01,15,00,1.11
0610300051,2001,01,15,01,1.42
0610300051,2001,01,15,02,1.28
0610300051,2001,01,15,03,1.07
0610300051,2001,01,15,04,0.99
0610300051,2001,01,15,05,0.96
0610300051,2001,01,15,06,0.77
0610300051,2001,01,15,07,0.56
0610300051,2001,01,15,08,1.11
0610300051,2001,01,15,09,1.72
0610300051,2001,01,15,10,2.16
0610300051,2001,01,15,11,2.29
0610300051,2001,01,15,12,2.41
0610300051,2001,01,15,13,2.51
0610300051,2001,01,15,14,2.44
0610300051,2001,01,15,15,2.02
0610300051,2001,01,15,16,1.99
0610300051,2001,01,15,17,2.45
0610300051,2001,01,15,18,2.28
0610300051,2001,01,15,19,1.9
0610300051,2001,01,15,20,1.09
0610300051,2001,01,15,21,0.24
0610300051,2001,01,15,22,1.62
0610300051,2001,01,15,23,2.04
0610300051,2001,01,16,00,1.82
0610300051,2001,01,16,01,1.75
0610300051,2001,01,16,02,1.4
0610300051,2001,01,16,03,1.41
0610300051,2001,01,16,04,1.54
0610300051,2001,01,16,05,1.63
0610300051,2001,01,16,06,1.21
0610300051,2001,01,16,07,1.32
0610300051,2001,01,16,08,1.66
0610300051,2001,01,16,09,2.05
0610300051,2001,01,16,10,2.2
0610300051,2001,01,16,11,2.29
0610300051,2001,01,16,12,2.25
0610300051,2001,01,16,13,2.24
0610300051,2001,01,16,14,2.14
0610300051,2001,01,16,15,1.44
0610300051,2001,01,16,16,0.65
0610300051,2001,01,16,17,0.94
0610300051,2001,01,16,18,0.63
0610300051,2001,01,16,19,0.17
0610300051,2001,01,16,20,99
0610300051,2001,01,16,21,1.02
0610300051,2001,01,16,22,99
0610300051,2001,01,16,23,99
0610300051,2001,01,17,00,0.37
0610300051,2001,01,17,01,0.22
0610300051,2001,01,17,02,0.13
0610300051,2001,01,17,03,99
0610300051,2001,01,17,04,0.51
0610300051,2001,01,17,05,99
0610300051,2001,01,17,06,99
0610300051,2001,01,17,07,-0.02
0610300051,2001,01,17,08,0.61
0610300051,2001,01,17,09,1.39
0610300051,2001,01,17,10,1.95
0610300051,2001,01,17,11,2.09
0610300051,2001,01,17,12,2.32
0610300051,2001,01,17,13,2.33
0610300051,2001,01,17,14,2.03
0610300051,2001,01,17,15,0.87
0610300051,2001,01,17,16,99
0610300051,2001,01,17,17,99
0610300051,2001,01,17,18,0.63
0610300051,2001,01,17,19,99
0610300051,2001,01,17,20,0.08
0610300051,2001,01,17,21,99
0610300051,2001,01,17,22,99
0610300051,2001,01,17,23,99
0610300051,2001,01,18,00,99
0610300051,2001,01,18,01,99
0610300051,2001,01,18,02,99
0610300051,2001,01,18,03,99
0610300051,2001,01,18,04,99
0610300051,2001,01,18,05,99
0610300051,2001,01,18,06,99
0610300051,2001,01,18,07,99
0610300051,2001,01,18,08,99
0610300051,2001,01,18,09,99
0610300051,2001,01,18,10,0.01
0610300051,2001,01,18,11,0.35
0610300051,2001,01,18,12,0.12
0610300051,2001,01,18,13,0.55
0610300051,2001,01,18,14,99
0610300051,2001,01,18,15,99
0610300051,2001,01,18,16,99
0610300051,2001,01,18,17,99
0610300051,2001,01,18,18,99
0610300051,2001,01,18,19,99
0610300051,2001,01,18,20,99
0610300051,2001,01,18,21,99
0610300051,2001,01,18,22,99
0610300051,2001,01,18,23,99
0610300051,2001,01,19,00,99
0610300051,2001,01,19,01,99
0610300051,2001,01,19,02,99
0610300051,2001,01,19,03,99
0610300051,2001,01,19,04,99
0610300051,2001,01,19,05,99
0610300051,2001,01,19,06,99
0610300051,2001,01,19,07,99
0610300051,2001,01,19,08,99
0610300051,2001,01,19,09,0.14
0610300051,2001,01,19,10,0.56
0610300051,2001,01,19,11,0.95
0610300051,2001,01,19,12,1.91
0610300051,2001,01,19,13,2.12
0610300051,2001,01,19,14,1.75
0610300051,2001,01,19,15,1.36
0610300051,2001,01,19,16,99
0610300051,2001,01,19,17,99
0610300051,2001,01,19,18,99
0610300051,2001,01,19,19,99
0610300051,2001,01,19,20,99
0610300051,2001,01,19,21,99
0610300051,2001,01,19,22,99
0610300051,2001,01,19,23,99
0610300051,2001,01,20,00,99
0610300051,2001,01,20,01,99
0610300051,2001,01,20,02,99
0610300051,2001,01,20,03,99
0610300051,2001,01,20,04,99
0610300051,2001,01,20,05,99
0610300051,2001,01,20,06,99
0610300051,2001,01,20,07,99
0610300051,2001,01,20,08,99
0610300051,2001,01,20,09,99
0610300051,2001,01,20,10,0.15
0610300051,2001,01,20,11,0.63
0610300051,2001,01,20,12,0.86
0610300051,2001,01,20,13,0.32
0610300051,2001,01,20,14,0.99
0610300051,2001,01,20,15,99
0610300051,2001,01,20,16,99
0610300051,2001,01,20,17,99
0610300051,2001,01,20,18,99
0610300051,2001,01,20,19,99
0610300051,2001,01,20,20,99
0610300051,2001,01,20,21,99
0610300051,2001,01,20,22,99
0610300051,2001,01,20,23,99
0610300051,2001,01,21,00,99
0610300051,2001,01,21,01,99
0610300051,2001,01,21,02,99
0610300051,2001,01,21,03,99
0610300051,2001,01,21,04,99
0610300051,2001,01,21,05,99
0610300051,2001,01,21,06,99
0610300051,2001,01,21,07,99
0610300051,2001,01,21,08,99
0610300051,2001,01,21,09,99
0610300051,2001,01,21,10,0.37
0610300051,2001,01,21,11,0.72
0610300051,2001,01,21,12,0.52
0610300051,2001,01,21,13,0.34
0610300051,2001,01,21,14,99
0610300051,2001,01,21,15,99
0610300051,2001,01,21,16,99
0610300051,2001,01,21,17,99
0610300051,2001,01,21,18,99
0610300051,2001,01,21,19,99
0610300051,2001,01,21,20,99
0610300051,2001,01,21,21,99
0610300051,2001,01,21,22,0.23
0610300051,2001,01,21,23,0.02
0610300051,2001,01,22,00,99
0610300051,2001,01,22,01,99
0610300051,2001,01,22,02,99
0610300051,2001,01,22,03,99
0610300051,2001,01,22,04,99
0610300051,2001,01,22,05,99
0610300051,2001,01,22,06,99
0610300051,2001,01,22,07,99
0610300051,2001,01,22,08,99
0610300051,2001,01,22,09,0.57
0610300051,2001,01,22,10,1.16
0610300051,2001,01,22,11,2.39
0610300051,2001,01,22,12,1.77
0610300051,2001,01,22,13,2.12
0610300051,2001,01,22,14,2.01
0610300051,2001,01,22,15,1.94
0610300051,2001,01,22,16,99
0610300051,2001,01,22,17,99
0610300051,2001,01,22,18,99
0610300051,2001,01,22,19,99
0610300051,2001,01,22,20,99
0610300051,2001,01,22,21,99
0610300051,2001,01,22,22,99
0610300051,2001,01,22,23,99
0610300051,2001,01,23,00,99
0610300051,2001,01,23,01,99
0610300051,2001,01,23,02,99
0610300051,2001,01,23,03,99
0610300051,2001,01,23,04,99
0610300051,2001,01,23,05,99
0610300051,2001,01,23,06,99
0610300051,2001,01,23,07,99
0610300051,2001,01,23,08,99
0610300051,2001,01,23,09,99
0610300051,2001,01,23,10,99
0610300051,2001,01,23,11,99
0610300051,2001,01,23,12,99
0610300051,2001,01,23,13,99
0610300051,2001,01,23,14,99
0610300051,2001,01,23,15,0.74
0610300051,2001,01,23,16,1.35
0610300051,2001,01,23,17,1.57
0610300051,2001,01,23,18,1.05
0610300051,2001,01,23,19,0.71
0610300051,2001,01,23,20,1.35
0610300051,2001,01,23,21,2.34
0610300051,2001,01,23,22,2.71
0610300051,2001,01,23,23,2.73
0610300051,2001,01,24,00,2.34
0610300051,2001,01,24,01,2.05
0610300051,2001,01,24,02,2.1
0610300051,2001,01,24,03,2.01
0610300051,2001,01,24,04,2.1
0610300051,2001,01,24,05,1.58
0610300051,2001,01,24,06,0.95
0610300051,2001,01,24,07,0.71
0610300051,2001,01,24,08,0.96
0610300051,2001,01,24,09,1.51
0610300051,2001,01,24,10,1.66
0610300051,2001,01,24,11,1.88
0610300051,2001,01,24,12,1.99
0610300051,2001,01,24,13,1.96
0610300051,2001,01,24,14,1.87
0610300051,2001,01,24,15,0.7
0610300051,2001,01,24,16,0.05
0610300051,2001,01,24,17,1.56
0610300051,2001,01,24,18,0.03
0610300051,2001,01,24,19,99
0610300051,2001,01,24,20,99
0610300051,2001,01,24,21,99
0610300051,2001,01,24,22,99
0610300051,2001,01,24,23,0.09
0610300051,2001,01,25,00,0.87
0610300051,2001,01,25,01,1
0610300051,2001,01,25,02,0.47
0610300051,2001,01,25,03,0.78
0610300051,2001,01,25,04,0.56
0610300051,2001,01,25,05,0.41
0610300051,2001,01,25,06,0.49
0610300051,2001,01,25,07,0.81
0610300051,2001,01,25,08,1.12
0610300051,2001,01,25,09,1.22
0610300051,2001,01,25,10,1.82
0610300051,2001,01,25,11,1.93
0610300051,2001,01,25,12,1.67
0610300051,2001,01,25,13,1.69
0610300051,2001,01,25,14,1.71
0610300051,2001,01,25,15,1.63
0610300051,2001,01,25,16,1.56
0610300051,2001,01,25,17,1.24
0610300051,2001,01,25,18,1.17
0610300051,2001,01,25,19,1.47
0610300051,2001,01,25,20,0.9
0610300051,2001,01,25,21,0.91
0610300051,2001,01,25,22,0.98
0610300051,2001,01,25,23,1.29
0610300051,2001,01,26,00,1.21
0610300051,2001,01,26,01,0.99
0610300051,2001,01,26,02,0.73
0610300051,2001,01,26,03,0.47
0610300051,2001,01,26,04,0.17
0610300051,2001,01,26,05,99
0610300051,2001,01,26,06,99
0610300051,2001,01,26,07,99
0610300051,2001,01,26,08,99
0610300051,2001,01,26,09,99
0610300051,2001,01,26,10,0.16
0610300051,2001,01,26,11,0.39
0610300051,2001,01,26,12,0.59
0610300051,2001,01,26,13,0.78
0610300051,2001,01,26,14,1.34
0610300051,2001,01,26,15,1.5
0610300051,2001,01,26,16,0.89
0610300051,2001,01,26,17,0.57
0610300051,2001,01,26,18,0.66
0610300051,2001,01,26,19,0.28
0610300051,2001,01,26,20,99
0610300051,2001,01,26,21,99
0610300051,2001,01,26,22,99
0610300051,2001,01,26,23,99
0610300051,2001,01,27,00,-0.07
0610300051,2001,01,27,01,0.08
0610300051,2001,01,27,02,0.86
0610300051,2001,01,27,03,1.71
0610300051,2001,01,27,04,1.73
0610300051,2001,01,27,05,1.79
0610300051,2001,01,27,06,2.03
0610300051,2001,01,27,07,2.26
0610300051,2001,01,27,08,2.32
0610300051,2001,01,27,09,2.41
0610300051,2001,01,27,10,2.69
0610300051,2001,01,27,11,2.74
0610300051,2001,01,27,12,2.64
0610300051,2001,01,27,13,2.7
0610300051,2001,01,27,14,2.6
0610300051,2001,01,27,15,2.56
0610300051,2001,01,27,16,2.21
0610300051,2001,01,27,17,2.05
0610300051,2001,01,27,18,2.17
0610300051,2001,01,27,19,1.44
0610300051,2001,01,27,20,0.19
0610300051,2001,01,27,21,1.63
0610300051,2001,01,27,22,0.94
0610300051,2001,01,27,23,0.89
0610300051,2001,01,28,00,0.22
0610300051,2001,01,28,01,99
0610300051,2001,01,28,02,0.47
0610300051,2001,01,28,03,0.42
0610300051,2001,01,28,04,1.06
0610300051,2001,01,28,05,0.76
0610300051,2001,01,28,06,-0.04
0610300051,2001,01,28,07,0.67
0610300051,2001,01,28,08,1.14
0610300051,2001,01,28,09,1.41
0610300051,2001,01,28,10,1.62
0610300051,2001,01,28,11,1.97
0610300051,2001,01,28,12,2.29
0610300051,2001,01,28,13,2.28
0610300051,2001,01,28,14,2.15
0610300051,2001,01,28,15,1.91
0610300051,2001,01,28,16,1.01
0610300051,2001,01,28,17,99
0610300051,2001,01,28,18,99
0610300051,2001,01,28,19,99
0610300051,2001,01,28,20,99
0610300051,2001,01,28,21,99
0610300051,2001,01,28,22,0.32
0610300051,2001,01,28,23,0.61
0610300051,2001,01,29,00,0.49
0610300051,2001,01,29,01,0.48
0610300051,2001,01,29,02,0.28
0610300051,2001,01,29,03,0.03
0610300051,2001,01,29,04,0.39
0610300051,2001,01,29,05,0.1
0610300051,2001,01,29,06,99
0610300051,2001,01,29,07,99
0610300051,2001,01,29,08,0.52
0610300051,2001,01,29,09,1.07
0610300051,2001,01,29,10,1.48
0610300051,2001,01,29,11,2.2
0610300051,2001,01,29,12,2.33
0610300051,2001,01,29,13,99
0610300051,2001,01,29,14,99
0610300051,2001,01,29,15,99
0610300051,2001,01,29,16,99
0610300051,2001,01,29,17,99
0610300051,2001,01,29,18,99
0610300051,2001,01,29,19,2.04
0610300051,2001,01,29,20,0.92
0610300051,2001,01,29,21,99
0610300051,2001,01,29,22,99
0610300051,2001,01,29,23,1.06
0610300051,2001,01,30,00,1.39
0610300051,2001,01,30,01,1.32
0610300051,2001,01,30,02,0.87
0610300051,2001,01,30,03,0.1
0610300051,2001,01,30,04,99
0610300051,2001,01,30,05,99
0610300051,2001,01,30,06,99
0610300051,2001,01,30,07,0.45
0610300051,2001,01,30,08,0.74
0610300051,2001,01,30,09,1.53
0610300051,2001,01,30,10,1.72
0610300051,2001,01,30,11,1.51
0610300051,2001,01,30,12,1.57
0610300051,2001,01,30,13,1.71
0610300051,2001,01,30,14,1.82
0610300051,2001,01,30,15,1.8
0610300051,2001,01,30,16,1.11
0610300051,2001,01,30,17,0.54
0610300051,2001,01,30,18,0.81
0610300051,2001,01,30,19,1.36
0610300051,2001,01,30,20,0.48
0610300051,2001,01,30,21,99
0610300051,2001,01,30,22,0.2
0610300051,2001,01,30,23,0.76
0610300051,2001,01,31,00,1.02
0610300051,2001,01,31,01,0.69
0610300051,2001,01,31,02,0.82
0610300051,2001,01,31,03,0.43
0610300051,2001,01,31,04,99
0610300051,2001,01,31,05,99
0610300051,2001,01,31,06,99
0610300051,2001,01,31,07,99
0610300051,2001,01,31,08,0.49
0610300051,2001,01,31,09,1.8
0610300051,2001,01,31,10,2.13
0610300051,2001,01,31,11,2.36
0610300051,2001,01,31,12,2.5
0610300051,2001,01,31,13,2.46
0610300051,2001,01,31,14,2.37
0610300051,2001,01,31,15,1.88
0610300051,2001,01,31,16,99
0610300051,2001,01,31,17,99
0610300051,2001,01,31,18,99
0610300051,2001,01,31,19,0.17
0610300051,2001,01,31,20,0.5
0610300051,2001,01,31,21,0.4
0610300051,2001,01,31,22,99
0610300051,2001,01,31,23,99
0610300051,2001,02,01,00,99
0610300051,2001,02,01,01,0.36
0610300051,2001,02,01,02,99
0610300051,2001,02,01,03,99
0610300051,2001,02,01,04,99
0610300051,2001,02,01,05,99
0610300051,2001,02,01,06,99
0610300051,2001,02,01,07,99
0610300051,2001,02,01,08,99
0610300051,2001,02,01,09,0.11
0610300051,2001,02,01,10,0.82
0610300051,2001,02,01,11,0.92
0610300051,2001,02,01,12,0.85
0610300051,2001,02,01,13,0.98
0610300051,2001,02,01,14,0.44
0610300051,2001,02,01,15,-0.01
0610300051,2001,02,01,16,99
0610300051,2001,02,01,17,99
0610300051,2001,02,01,18,99
0610300051,2001,02,01,19,99
0610300051,2001,02,01,20,99
0610300051,2001,02,01,21,99
0610300051,2001,02,01,22,99
0610300051,2001,02,01,23,99
0610300051,2001,02,02,00,99
0610300051,2001,02,02,01,99
0610300051,2001,02,02,02,99
0610300051,2001,02,02,03,99
0610300051,2001,02,02,04,99
0610300051,2001,02,02,05,99
0610300051,2001,02,02,06,99
0610300051,2001,02,02,07,99
0610300051,2001,02,02,08,99
0610300051,2001,02,02,09,99
0610300051,2001,02,02,10,0.29
0610300051,2001,02,02,11,0.94
0610300051,2001,02,02,12,0.95
0610300051,2001,02,02,13,0.62
0610300051,2001,02,02,14,0.79
0610300051,2001,02,02,15,1.07
0610300051,2001,02,02,16,0.13
0610300051,2001,02,02,17,99
0610300051,2001,02,02,18,99
0610300051,2001,02,02,19,99
0610300051,2001,02,02,20,99
0610300051,2001,02,02,21,99
0610300051,2001,02,02,22,99
0610300051,2001,02,02,23,99
0610300051,2001,02,03,00,99
0610300051,2001,02,03,01,99
0610300051,2001,02,03,02,99
0610300051,2001,02,03,03,99
0610300051,2001,02,03,04,99
0610300051,2001,02,03,05,99
0610300051,2001,02,03,06,99
0610300051,2001,02,03,07,99
0610300051,2001,02,03,08,-0.07
0610300051,2001,02,03,09,0.47